Weather in Nuussuaq

Greenland     74˚06′00″N   57˚06′00″W
temp.,
°C
wind,
m/s
gust,
m/s
humid.,
%
clouds,
%
prec.,
mm/h
press.,
hPa
HPBL,
m
16 january, sat
sat1600:00−12˚ene1195100 0.3 101162
03:00−11˚ese2395100 0.7 1011102
06:00−10˚se3495100 0.3 1013135
09:00−9˚ese3394100 0.4 1014134
12:00−11˚ene229197 0.0 101521
15:00−13˚nne228656 0.0 101520
18:00−14˚nne34746 0.0 101644
21:00−15˚n44703 0.0 101557
17 january, sun
sun1700:00−16˚n44670 0.0 101455
03:00−16˚n44660 0.0 101351
06:00−16˚n45670 0.0 101258
09:00−16˚n45670 0.0 101061
12:00−16˚n44660 0.0 101051
15:00−17˚nnw33670 0.0 101046
18:00−18˚n11700 0.0 101220
21:00−16˚sse46692 0.0 101594
18 january, mon
mon1800:00−14˚se456315 0.0 101887
03:00−10˚se579457 0.2 1020190
06:00−9˚ese3495100 0.1 102298
09:00−10˚e4495100 1.2 1024135
12:00−12˚e3493100 0.8 1027114
15:00−13˚e3395100 1.3 102882
18:00−13˚e2395100 0.4 102978
21:00−14˚e2291100 0.6 102869
19 january, tue
tue1900:00−16˚ene227098 0.0 102734
03:00−17˚ene126885 0.0 102620
06:00−17˚n236542 0.0 102537
09:00−17˚n446667 0.0 102354
12:00−16˚nnw566296 0.0 102173
15:00−15˚nnw576298 0.0 102091
18:00−13˚nnw5663100 0.0 101886
21:00−11˚nnw4462100 0.0 101663
20 january, wed
wed2000:00−9˚n3461100 0.0 101544
03:00−6˚nnw3360100 0.0 101524
06:00−3˚nw1260100 0.0 101421
09:00−2˚se3362100 0.0 101427
12:00−4˚se5771100 0.0 101591
15:00−2˚se71096100 0.3 1016265
18:00−1˚ese4487100 0.3 101756
21:00−2˚sse91596100 0.6 1019492